Location: El Diablo
(32.4667°N, 116.4500°W)
Time: 02:03:26
(UTC+00:00)

Cosmos 2322 Rocket - Pass Details

Date: 10 September 2024
Orbit: 831 x 850 km, 71.0° (Epoch: 06 October)

Event Time Altitude Azimuth Distance (km) Brightness Sun altitude
Rises 12:07:07 0° 334° (NNW) 3,409 5.3 -17.3°
Reaches altitude 10° 12:09:36 10° 331° (NNW) 2,468 4.5 -16.8°
Maximum altitude 12:15:08 58° 254° (WSW) 975 2.2 -15.7°
Drops below altitude 10° 12:20:37 10° 176° (S) 2,442 4.5 -14.5°
Sets 12:23:05 0° 172° (S) 3,370 5.3 -14.0°
